Temp
64 63 62 62 64 61 59 58 57 57 57 58 58 58 58 56 55 54 54 55 53 53 54 55 54 54 52 52 52 52 52 51 48 52 56 58 56 57 59 61 64 63 63
63 61 59 59 57 56 55 55 56 55 56 57 58 58 58 55 53 52 51 52 51 51 53 52 52 56 48 49 48 47 47 49 48 45 50 52 53 57 55 54 57 60 61
62 59 57 55 55 53 54 54 55 55 55 55 57 56 55 53 52 51 50 51 50 51 51 50 50 49 47 46 45 45 46 50 48 46 46 50 51 54 54 53 53 53 57
59 56 54 53 53 53 53 54 54 55 54 54 55 55 53 52 51 50 50 48 48 51 51 51 51 53 54 49 48 45 48 45 46 45 45 47 48 50 51 49 49 52 52
58 55 53 53 54 54 53 53 53 53 54 54 53 53 53 52 52 46 47 46 46 48 49 52 53 55 57 56 54 51 50 49 49 47 47 47 47 47 46 48 46 48 51
57 56 56 55 56 54 53 54 53 52 52 53 52 51 49 54 48 49 48 44 46 48 48 51 51 54 56 53 52 52 51 49 49 48 48 47 48 48 50 47 47 47 46
56 57 57 56 55 54 54 52 50 49 49 49 50 50 49 47 47 46 48 47 47 47 47 48 50 55 52 50 50 51 51 51 51 48 45 46 46 48 49 47 47 46 45
55 56 57 55 53 52 51 49 48 48 47 48 48 50 48 48 45 44 46 46 46 47 46 47 47 52 51 47 47 48 49 50 51 50 48 47 47 49 48 48 46 46 47
55 54 55 54 51 50 48 47 47 46 46 46 48 49 50 43 44 44 44 44 44 43 46 49 52 51 46 44 46 47 48 50 51 49 47 45 44 43 44 45 44 43 43
54 54 54 53 50 48 46 46 47 46 47 49 50 54 51 46 44 44 43 43 45 45 46 49 50 47 44 43 45 46 45 46 47 46 45 45 46 46 47 46 46 43 43
55 54 53 50 49 48 47 48 47 46 46 46 52 50 50 48 45 43 43 46 45 46 48 50 51 44 43 43 43 47 44 45 48 47 45 45 45 45 46 46 48 47 44
54 53 50 49 51 51 49 51 47 45 45 44 43 44 46 46 44 43 42 42 44 47 48 49 50 44 43 43 45 42 42 46 48 46 46 44 43 43 42 45 47 48 48
51 49 48 49 49 49 51 47 48 44 43 42 42 40 41 44 43 43 41 41 43 44 48 46 45 44 44 44 44 44 45 46 45 45 46 46 45 45 46 46 48 49 49
48 48 47 46 46 47 48 46 42 41 40 40 42 38 38 40 40 40 40 39 42 44 44 46 46 45 45 45 47 48 48 47 46 45 46 48 47 46 46 47 46 47 46
49 47 45 45 45 44 43 42 41 37 40 37 40 42 40 37 39 39 38 37 39 41 43 43 44 46 46 47 48 49 48 48 46 46 46 46 48 47 46 46 46 46 45
45 44 42 43 43 44 47 43 41 41 40 40 39 40 42 39 39 39 40 40 42 42 42 41 45 45 44 44 44 45 46 46 45 45 45 47 48 48 48 46 46 46 45
41 42 42 44 42 44 49 46 41 39 42 41 39 39 38 38 39 39 40 42 42 42 40 41 43 44 43 43 42 43 42 45 45 43 44 46 49 51 48 48 48 48 49
44 45 41 41 42 44 48 46 42 39 43 40 40 39 39 38 39 40 40 43 41 43 40 40 43 43 42 42 41 41 42 42 42 41 42 45 48 49 52 51 51 50 49
47 43 40 42 44 43 43 40 39 42 42 41 41 41 39 38 40 42 42 41 38 39 43 42 43 42 41 41 40 40 41 40 39 39 40 43 46 49 52 52 51 42 44
44 42 41 42 47 45 42 37 40 39 37 40 39 38 39 40 41 42 45 44 39 41 41 41 42 41 40 39 38 39 39 38 37 37 39 42 44 50 51 52 52 50 50
46 45 38 47 44 40 42 39 40 39 39 39 39 39 34 38 41 41 42 45 40 40 40 40 41 40 39 37 37 36 36 35 35 35 38 40 43 49 50 51 51 52 50
46 46 45 44 44 43 40 41 40 39 40 40 39 40 35 40 43 42 42 41 41 41 41 40 39 38 37 36 35 34 33 32 32 33 36 39 45 50 51 50 50 51 51
46 45 44 43 42 39 40 41 40 40 40 40 41 41 42 43 44 41 41 41 41 40 40 39 38 37 36 35 34 34 31 30 30 34 35 37 44 46 48 49 50 49 48
44 43 42 40 41 40 40 39 38 37 40 40 42 44 44 41 40 40 40 40 40 41 40 38 37 36 35 33 33 33 32 32 33 35 36 42 44 45 46 47 49 49 48
42 42 41 39 39 39 39 39 39 40 40 42 43 42 45 43 39 39 40 39 40 41 40 37 35 34 33 32 32 32 31 31 33 34 38 44 44 44 45 46 46 46 46
41 41 40 40 40 40 40 41 41 43 42 44 44 44 40 38 39 39 38 40 39 39 39 37 36 35 32 31 31 31 30 31 32 33 40 42 41 42 43 45 45 45 44
MSLP
1014.53 1015.08 1015.47 1015.87 1016.01 1016.38 1016.83 1017.06 1017.14 1017.16 1017.08 1016.99 1016.80 1016.62 1016.65 1017.06 1017.12 1016.92 1016.83 1016.75 1016.55 1016.13 1015.66 1015.39 1015.23 1015.06 1014.97 1014.83 1014.55 1014.26 1013.85 1013.31 1012.26 1010.62 1010.50 1009.81 1009.00 1008.15 1007.23 1006.47 1005.80 1004.89 1004.36
1015.48 1015.92 1016.41 1016.70 1016.89 1017.20 1017.50 1017.60 1017.63 1017.63 1017.47 1017.31 1017.18 1017.12 1017.51 1017.70 1017.85 1017.81 1017.74 1017.45 1017.11 1016.75 1016.38 1016.02 1015.80 1015.41 1015.37 1014.95 1014.70 1014.55 1014.11 1013.52 1012.91 1011.71 1010.93 1009.98 1009.22 1008.32 1007.50 1006.85 1006.35 1005.59 1004.81
1016.27 1016.74 1017.15 1017.43 1017.62 1017.86 1018.02 1018.15 1018.06 1018.03 1017.83 1017.65 1017.63 1017.79 1018.23 1018.42 1018.47 1018.40 1018.28 1018.00 1017.50 1017.12 1016.76 1016.22 1015.85 1015.52 1015.25 1014.80 1014.64 1014.34 1013.95 1013.35 1012.93 1012.15 1010.96 1010.17 1009.41 1008.60 1007.69 1007.19 1006.73 1006.13 1005.54
1016.83 1017.28 1017.76 1018.07 1018.26 1018.40 1018.51 1018.58 1018.51 1018.50 1018.33 1018.12 1018.10 1018.49 1018.72 1018.82 1018.81 1018.77 1018.57 1018.12 1017.65 1017.24 1016.74 1016.38 1015.93 1015.48 1014.88 1014.50 1014.23 1013.93 1013.40 1012.87 1012.28 1011.65 1010.79 1009.93 1009.29 1008.47 1008.09 1007.66 1006.76 1006.25 1005.87
1017.45 1017.79 1018.22 1018.37 1018.50 1018.78 1018.91 1018.92 1018.95 1018.81 1018.79 1018.71 1018.67 1018.95 1019.05 1019.05 1019.01 1018.72 1018.35 1018.17 1017.79 1017.17 1016.71 1016.15 1015.50 1015.21 1014.91 1014.48 1013.94 1013.46 1013.02 1012.33 1011.59 1011.00 1010.24 1009.45 1008.73 1008.30 1008.01 1007.52 1007.41 1006.65 1005.90
1017.97 1018.32 1018.45 1018.60 1018.78 1019.21 1019.29 1019.43 1019.50 1019.31 1019.19 1019.10 1019.04 1019.09 1019.11 1019.13 1018.91 1018.74 1018.41 1018.10 1017.61 1017.03 1016.46 1015.92 1015.72 1015.30 1014.78 1014.49 1013.90 1013.29 1012.66 1011.79 1010.93 1010.28 1009.61 1008.90 1008.28 1008.00 1007.71 1007.53 1007.32 1006.99 1006.14
1018.44 1018.73 1018.85 1019.00 1019.35 1019.77 1019.86 1019.99 1019.96 1019.64 1019.51 1019.42 1019.34 1019.34 1019.25 1019.31 1019.26 1018.82 1018.52 1018.10 1017.61 1017.17 1016.87 1016.61 1016.06 1015.39 1015.04 1014.55 1013.75 1012.77 1011.99 1011.45 1010.86 1010.11 1009.23 1008.51 1007.86 1007.54 1007.40 1007.18 1007.10 1007.11 1006.90
1018.86 1019.20 1019.35 1019.62 1019.99 1020.30 1020.44 1020.47 1020.30 1020.06 1019.99 1019.94 1019.67 1019.48 1019.51 1019.79 1019.41 1019.16 1018.74 1018.37 1018.00 1017.72 1017.26 1016.70 1016.08 1015.51 1015.21 1014.67 1013.84 1012.85 1011.89 1011.05 1010.22 1009.61 1008.92 1008.20 1007.75 1007.34 1007.17 1007.03 1006.98 1006.92 1006.70
1019.32 1019.73 1019.89 1020.07 1020.44 1020.64 1020.82 1020.76 1020.64 1020.49 1020.39 1020.18 1019.85 1019.54 1019.69 1020.26 1019.92 1019.64 1019.27 1018.93 1018.47 1017.91 1017.26 1016.63 1016.20 1015.81 1015.36 1014.71 1014.16 1013.30 1012.17 1011.19 1010.26 1009.40 1008.85 1008.24 1007.61 1007.16 1006.83 1006.85 1006.66 1006.76 1006.69
1019.69 1020.06 1020.23 1020.41 1020.63 1021.04 1021.00 1020.84 1020.58 1020.50 1020.45 1020.11 1019.79 1019.68 1020.01 1020.53 1020.34 1020.02 1019.77 1019.22 1018.49 1017.81 1017.26 1016.71 1016.31 1016.08 1015.42 1014.83 1014.45 1013.73 1012.65 1011.64 1010.81 1009.88 1009.06 1008.30 1007.75 1007.22 1006.90 1006.60 1006.54 1006.69 1006.66
1019.95 1020.31 1020.50 1020.70 1020.95 1020.94 1020.98 1020.63 1020.65 1020.70 1020.62 1020.43 1020.30 1020.51 1020.70 1020.78 1020.63 1020.35 1019.93 1019.39 1019.00 1018.37 1017.68 1017.08 1016.65 1016.22 1015.61 1014.98 1014.59 1014.02 1013.18 1012.03 1010.75 1010.03 1009.34 1008.63 1008.03 1007.60 1007.22 1006.93 1006.81 1006.77 1006.59
1020.31 1020.66 1020.85 1020.88 1021.02 1020.90 1020.95 1020.82 1020.99 1021.12 1021.28 1021.35 1021.32 1021.36 1021.22 1021.08 1021.10 1020.75 1020.14 1019.63 1019.29 1018.76 1018.07 1017.58 1017.03 1016.45 1015.88 1015.27 1014.73 1013.94 1012.99 1012.10 1011.00 1010.04 1009.44 1008.86 1008.36 1007.98 1007.57 1007.14 1006.80 1006.44 1006.19
1020.66 1021.03 1021.18 1021.09 1021.11 1021.02 1021.02 1021.31 1021.69 1021.71 1021.90 1022.12 1022.14 1022.20 1022.13 1021.73 1021.57 1021.18 1020.55 1019.94 1019.40 1019.00 1018.40 1017.85 1017.25 1016.52 1015.91 1015.39 1014.69 1013.91 1013.10 1012.29 1011.39 1010.40 1009.47 1008.83 1008.57 1008.14 1007.59 1007.10 1006.63 1006.19 1005.72
1021.08 1021.36 1021.35 1021.45 1021.48 1021.22 1021.32 1021.80 1022.26 1022.58 1022.72 1022.83 1022.92 1022.77 1022.62 1022.22 1021.92 1021.42 1020.87 1020.27 1019.65 1019.04 1018.38 1017.76 1017.22 1016.57 1015.92 1015.34 1014.53 1013.83 1013.13 1012.51 1011.69 1010.94 1009.97 1008.97 1008.32 1007.87 1007.59 1007.19 1006.81 1006.31 1005.66
1021.38 1021.54 1021.63 1021.77 1021.76 1021.74 1022.12 1022.43 1022.80 1023.24 1023.27 1023.46 1023.46 1023.23 1022.95 1022.70 1022.31 1021.72 1021.26 1020.57 1019.93 1019.28 1018.56 1017.99 1017.38 1016.62 1016.03 1015.40 1014.78 1014.09 1013.33 1012.60 1011.90 1011.30 1010.34 1009.42 1008.53 1007.89 1007.56 1007.16 1006.87 1006.34 1005.87
1021.87 1021.98 1022.16 1022.20 1022.11 1021.80 1022.27 1022.90 1023.34 1023.48 1023.72 1023.78 1023.78 1023.53 1023.20 1023.03 1022.40 1021.60 1021.02 1020.65 1020.18 1019.60 1019.15 1018.80 1018.18 1017.57 1017.07 1016.45 1015.86 1015.00 1014.21 1013.42 1012.83 1011.84 1010.94 1009.83 1008.72 1008.01 1007.49 1007.05 1006.81 1006.42 1005.99
1022.46 1022.58 1022.48 1022.54 1022.45 1022.25 1022.14 1022.85 1023.52 1023.87 1023.86 1023.95 1023.91 1023.55 1023.36 1023.13 1022.48 1021.93 1021.34 1020.93 1020.47 1019.96 1019.83 1019.40 1018.97 1018.46 1017.95 1017.47 1016.91 1016.17 1015.34 1014.56 1013.87 1012.89 1011.93 1010.69 1009.40 1008.04 1007.31 1007.01 1006.66 1006.32 1005.83
1022.63 1022.73 1022.92 1022.93 1022.58 1022.51 1022.55 1023.13 1023.54 1023.81 1023.93 1024.13 1023.95 1023.64 1023.36 1023.03 1022.71 1022.24 1021.70 1021.20 1020.81 1020.27 1020.22 1019.89 1019.67 1019.28 1018.85 1018.34 1017.70 1016.96 1016.14 1015.32 1014.56 1013.85 1012.82 1011.51 1010.20 1008.98 1007.71 1007.21 1006.83 1006.52 1006.19
1022.86 1022.93 1023.13 1022.89 1022.53 1022.84 1023.11 1023.60 1023.94 1024.06 1024.23 1024.25 1024.18 1023.81 1023.59 1023.12 1022.70 1022.11 1021.88 1021.62 1021.55 1021.21 1020.93 1020.59 1020.45 1020.09 1019.70 1019.21 1018.61 1017.85 1017.13 1016.44 1015.66 1014.76 1013.78 1012.48 1011.21 1009.82 1008.57 1007.67 1007.43 1006.94 1006.54
1023.15 1023.00 1023.17 1023.02 1022.76 1023.30 1023.70 1024.02 1024.42 1024.54 1024.66 1024.52 1024.36 1024.23 1023.76 1023.22 1022.99 1022.68 1022.12 1021.87 1021.84 1021.78 1021.57 1021.36 1021.20 1020.90 1020.53 1020.07 1019.46 1018.71 1018.00 1017.26 1016.43 1015.51 1014.43 1013.23 1012.07 1010.59 1009.53 1008.64 1008.02 1007.56 1007.22
1022.99 1022.97 1023.22 1022.87 1023.26 1023.85 1023.92 1024.49 1024.81 1024.90 1024.80 1024.65 1024.24 1024.01 1023.82 1023.64 1023.09 1022.84 1022.60 1022.31 1022.17 1022.30 1022.27 1022.09 1021.89 1021.67 1021.34 1020.91 1020.32 1019.60 1018.96 1018.28 1017.45 1016.55 1015.35 1014.13 1012.86 1011.18 1010.28 1009.53 1008.78 1008.07 1007.82
1023.02 1022.98 1023.23 1023.36 1023.75 1024.32 1024.51 1024.68 1024.91 1024.93 1024.79 1024.60 1024.25 1023.94 1023.72 1023.59 1023.12 1023.03 1022.92 1022.78 1022.70 1022.79 1022.86 1022.81 1022.65 1022.43 1022.13 1021.77 1021.31 1020.70 1020.06 1019.32 1018.34 1017.34 1016.16 1014.96 1013.47 1012.18 1011.12 1010.31 1009.61 1009.06 1008.58
1023.08 1023.14 1023.55 1023.77 1024.15 1024.62 1024.75 1024.79 1024.90 1024.86 1024.68 1024.38 1024.12 1023.78 1023.68 1023.57 1023.45 1023.39 1023.37 1023.33 1023.14 1023.28 1023.37 1023.39 1023.29 1023.05 1022.83 1022.46 1022.02 1021.52 1020.97 1020.24 1019.27 1018.15 1016.99 1015.71 1014.21 1013.12 1012.20 1011.37 1010.69 1010.12 1009.64
1023.36 1023.52 1023.86 1024.30 1024.57 1024.82 1024.93 1024.97 1024.99 1024.87 1024.73 1024.44 1024.13 1023.84 1023.81 1023.84 1023.92 1023.92 1023.85 1023.77 1023.70 1023.73 1024.01 1024.09 1024.04 1023.86 1023.57 1023.14 1022.55 1021.82 1021.17 1020.44 1019.38 1018.25 1017.27 1015.98 1014.96 1013.93 1013.06 1012.34 1011.71 1011.25 1010.72
1023.70 1023.96 1024.35 1024.76 1025.00 1025.11 1025.09 1025.07 1024.99 1024.90 1024.74 1024.62 1024.38 1024.42 1024.53 1024.45 1024.39 1024.43 1024.45 1024.43 1024.43 1024.45 1024.49 1024.78 1024.76 1024.56 1024.20 1023.81 1023.22 1022.37 1021.42 1020.47 1019.53 1018.63 1017.51 1016.53 1015.80 1014.82 1014.00 1013.35 1012.78 1012.28 1011.74
1024.12 1024.34 1024.63 1024.87 1025.01 1025.05 1024.93 1024.87 1024.94 1024.83 1024.82 1024.79 1024.79 1025.01 1025.21 1025.24 1025.25 1025.18 1025.11 1025.06 1025.15 1025.12 1025.26 1025.23 1025.08 1024.91 1024.74 1024.24 1023.69 1022.92 1021.95 1021.00 1020.06 1019.05 1018.02 1017.27 1016.64 1015.81 1014.94 1014.23 1013.67 1013.26 1012.81
Wind_Speed
13 11 11 10 12 10 9 8 7 7 7 7 7 7 8 11 10 10 10 11 10 9 8 9 10 9 7 7 7 7 7 7 11 11 10 11 12 12 13 11 13 9 6
10 11 10 10 9 8 7 7 7 7 7 7 7 8 12 10 9 9 8 8 9 9 9 7 6 7 5 6 5 7 5 6 7 16 12 11 12 13 10 8 8 11 11
11 10 9 8 8 8 7 7 7 7 7 7 7 7 9 8 8 7 6 7 7 6 7 7 7 6 6 4 4 4 4 5 7 8 11 9 9 10 12 10 10 9 8
9 8 8 7 7 7 7 6 7 6 7 7 7 9 7 7 6 5 5 6 7 8 7 6 6 8 10 6 6 6 6 6 6 7 8 9 7 8 7 8 11 8 9
7 7 7 6 6 5 6 7 7 7 7 6 7 6 5 4 3 4 6 6 7 6 5 6 7 13 18 14 9 10 10 10 9 9 10 10 9 7 7 6 5 7 8
8 7 7 7 7 7 7 7 6 6 6 5 6 5 3 2 6 9 8 6 7 7 8 9 7 12 13 16 17 19 15 12 13 11 10 12 13 10 8 5 7 8 6
7 6 6 7 7 7 7 6 6 6 6 7 6 5 5 2 7 11 15 7 8 8 7 8 9 9 10 14 17 19 16 17 16 13 12 12 12 9 8 7 4 2 5
8 7 7 7 7 6 6 6 6 5 5 4 6 5 5 7 14 16 16 8 7 9 8 8 7 9 13 14 13 13 15 14 14 11 12 12 11 10 6 4 2 3 5
7 6 6 6 7 6 6 6 4 4 5 4 3 5 7 7 12 14 12 7 8 8 8 9 8 12 16 16 12 13 14 16 16 19 15 14 13 13 9 3 2 1 3
7 6 6 6 7 6 4 3 2 3 4 5 6 6 9 5 11 14 11 4 9 8 8 9 10 12 15 16 11 10 13 14 13 15 13 11 10 9 10 5 1 2 3
7 7 6 6 6 5 2 2 4 4 6 6 7 7 8 6 10 18 16 8 8 7 7 8 9 16 17 16 15 11 13 14 11 8 8 7 7 6 5 5 2 2 2
7 6 6 6 2 3 4 3 3 6 6 7 7 6 6 6 15 15 18 16 12 6 7 7 8 13 15 15 13 17 18 15 9 7 7 7 7 6 5 4 4 5 5
6 5 5 4 5 4 4 5 5 6 5 5 5 5 5 5 6 13 14 16 13 7 7 8 12 13 12 8 12 13 12 9 10 9 8 6 5 5 6 4 4 5 5
4 4 4 5 4 5 5 5 5 5 5 4 5 4 4 5 6 7 7 7 9 7 7 6 8 9 8 8 8 8 8 9 9 9 10 9 4 3 3 3 3 4 3
3 5 6 4 4 4 6 4 6 4 4 3 4 4 5 6 8 12 8 5 6 7 7 4 5 9 10 11 11 12 10 11 12 11 9 10 8 4 3 3 2 3 3
6 5 4 3 3 3 5 6 10 8 6 9 8 6 3 6 14 14 11 8 13 14 5 5 8 9 10 11 11 12 12 14 12 12 11 11 9 7 5 4 2 3 3
6 5 4 4 4 4 3 4 4 1 3 5 4 9 10 9 14 13 12 11 9 8 4 6 8 9 9 10 10 10 11 12 13 11 12 12 12 10 4 4 4 3 6
5 3 3 3 3 4 5 6 4 4 3 3 2 7 12 12 11 9 11 6 5 6 4 5 9 9 10 10 11 11 11 12 12 12 12 12 13 13 9 8 7 4 3
4 3 4 4 1 5 5 5 4 5 4 4 4 5 8 11 10 7 6 3 4 4 8 7 8 9 9 10 10 10 11 11 11 11 11 11 12 12 12 8 7 7 5
1 3 4 4 5 5 5 5 4 4 3 2 2 3 4 3 3 3 4 3 4 5 7 7 8 9 9 10 10 10 11 11 11 11 12 11 11 10 10 11 7 8 6
3 2 2 3 5 4 6 5 3 2 1 1 1 3 4 3 4 4 4 5 5 5 7 7 8 9 9 9 10 11 11 11 11 11 11 11 12 12 11 10 10 7 7
1 3 4 4 5 4 4 4 2 2 1 2 2 3 6 3 4 4 5 5 5 6 6 7 7 8 9 9 10 10 10 11 11 11 12 11 11 11 11 11 11 10 8
1 5 4 4 4 4 3 3 2 1 1 3 4 3 1 3 5 5 5 5 5 5 6 7 8 8 9 9 9 8 9 10 10 10 11 10 10 10 10 11 10 11 11
4 5 5 4 3 4 3 2 2 1 3 3 4 4 4 5 5 6 5 5 5 6 6 7 9 10 9 10 10 10 9 10 9 10 13 9 11 12 9 11 10 13 11
4 5 5 4 3 2 1 2 2 3 2 3 4 5 6 6 6 6 7 5 5 8 7 7 7 10 10 14 15 18 18 20 16 16 9 13 14 14 11 10 10 10 11
4 5 4 3 3 2 2 2 3 1 3 4 7 8 7 6 6 7 6 8 7 7 9 5 9 15 15 12 15 18 19 21 18 19 11 11 11 12 8 11 14 9 11
Wind_Direction
76 75 72 67 64 60 55 45 44 38 29 24 22 26 35 51 33 32 19 11 2 354 350 2 8 2 4 3 357 345 333 339 311 320 320 326 330 317 322 323 313 289 270
76 72 66 60 55 56 51 38 36 40 27 24 20 21 60 48 35 31 15 359 354 345 353 4 351 354 358 340 342 325 317 315 325 315 319 323 324 320 312 325 358 358 337
75 73 69 61 54 55 46 41 37 34 27 21 25 50 64 53 39 25 6 345 339 343 341 341 333 339 320 298 296 296 305 307 305 306 311 316 312 318 324 335 349 342 346
85 76 74 69 65 57 59 46 39 34 22 24 22 78 74 60 44 14 346 344 339 333 327 327 318 323 331 315 305 291 295 291 286 287 295 298 304 307 314 327 331 337 331
82 81 95 96 90 72 66 51 40 36 20 26 61 61 73 64 29 0 359 338 311 306 310 314 320 331 327 323 326 323 306 301 295 292 290 296 300 309 309 319 309 311 327
71 57 70 73 68 68 64 52 44 30 13 33 71 77 50 43 343 352 346 323 312 315 328 325 328 318 336 4 338 322 310 308 297 290 289 287 287 292 294 301 314 320 325
91 69 70 72 64 58 56 44 25 19 25 25 32 33 22 60 3 3 348 333 334 327 330 352 337 340 17 346 332 319 317 314 304 299 292 290 288 285 291 283 297 334 314
70 66 60 65 66 63 59 38 19 8 32 16 16 11 34 48 33 16 351 339 345 355 345 329 329 354 357 345 330 330 333 330 324 313 297 291 288 294 292 289 323 306 290
83 72 62 78 75 64 50 25 2 28 6 348 335 357 62 44 27 26 10 355 352 343 329 332 350 356 342 343 342 328 336 345 338 332 325 315 303 293 267 275 232 341 305
93 84 65 70 92 76 66 1 341 26 338 333 334 348 98 71 29 24 11 349 357 352 343 346 351 356 341 341 346 333 340 336 335 341 350 344 337 332 324 259 198 270 289
90 87 70 61 107 99 50 20 28 351 349 358 41 27 72 54 27 16 2 3 0 342 343 351 353 350 345 348 346 349 338 319 320 338 338 347 348 350 353 359 11 299 294
75 84 73 37 33 130 103 52 14 10 35 34 30 21 7 19 35 0 352 355 343 340 344 338 338 346 344 341 350 340 339 338 331 325 339 349 351 350 334 318 293 276 252
84 87 108 55 17 37 16 49 62 33 39 34 26 23 350 356 6 353 345 339 336 342 345 330 336 339 332 334 334 334 337 344 345 348 344 332 329 304 304 304 306 296 289
93 77 86 71 47 28 33 72 68 43 39 36 27 10 344 346 350 347 341 333 334 345 346 331 325 316 319 317 342 347 347 350 349 343 338 335 299 317 316 329 311 323 305
69 83 52 58 28 20 62 77 92 51 76 78 33 20 1 350 338 323 326 322 337 323 322 324 341 359 359 1 358 355 354 354 352 346 337 335 336 318 307 317 305 305 300
54 54 40 43 351 350 123 85 61 100 92 90 69 52 358 333 330 338 349 10 10 356 353 347 5 6 3 357 357 350 356 354 350 340 341 342 340 333 324 314 289 293 303
67 41 23 27 352 329 72 129 109 57 99 119 73 25 21 350 344 348 16 12 3 360 13 356 12 6 2 359 357 352 352 350 344 346 342 339 347 339 318 320 319 317 348
111 48 3 331 309 7 81 79 73 60 56 54 19 28 1 353 338 359 12 351 355 5 2 7 19 8 4 359 356 352 352 350 350 345 342 340 345 342 346 2 358 344 338
53 24 347 318 294 81 75 75 60 59 46 47 5 358 351 341 344 333 2 39 1 357 21 19 23 11 6 2 356 350 353 349 344 343 341 341 342 342 352 356 7 354 350
126 299 324 327 82 77 80 74 55 64 47 30 31 327 321 336 2 326 333 358 14 44 28 19 23 14 9 4 356 351 352 351 348 345 341 341 339 344 345 356 5 4 1
176 186 11 82 66 79 83 82 64 54 65 349 17 287 298 308 327 336 358 27 45 50 36 24 27 18 12 5 359 353 352 347 346 341 337 336 333 351 352 359 353 356 6
126 110 74 65 78 79 92 106 114 64 335 274 284 292 309 311 334 20 35 39 42 67 50 35 25 23 13 6 358 352 349 345 340 338 335 331 333 353 353 0 1 4 15
68 97 91 79 98 110 84 90 101 86 296 307 313 301 310 18 33 29 34 53 40 63 60 43 30 22 13 6 359 354 349 339 327 323 328 325 346 353 354 360 7 8 6
69 90 86 65 66 99 120 133 157 235 287 324 334 45 72 63 48 29 30 34 50 47 62 51 36 23 12 8 357 356 352 344 335 336 335 332 354 354 358 6 8 15 10
99 104 112 124 104 114 163 227 237 260 287 332 55 50 50 45 42 37 30 35 45 48 48 54 36 20 13 10 4 357 352 353 349 345 338 0 1 351 2 9 12 18 13
103 107 122 147 170 190 212 229 242 355 73 82 78 71 55 45 38 37 38 35 44 47 37 47 35 25 13 7 3 357 356 354 351 345 352 3 2 359 353 15 7 25 17